Weather History for Crestview, FL

Change the Weather History Date:

Saturday, September 7, 2013

  Actual Average Record
Temperature  
Mean Temperature 78 °F -  
Max Temperature 91 °F 90 °F 97 °F (1990)
Min Temperature 66 °F 69 °F 53 °F (2011)
Cooling Degree Days 14    
Growing Degree Days 28 (Base 50)    
Moisture  
Dew Point 70 °F    
Average Humidity 83    
Maximum Humidity 94    
Minimum Humidity 47    
Precipitation  
Precipitation 0.12 in - - ()
Sea Level Pressure  
Sea Level Pressure 30.03 in    
Wind  
Wind Speed 1 mph (SW)    
Max Wind Speed 9 mph    
Max Gust Speed -    
Visibility 6 miles    
Events Rain , Thunderstorm    
Averages and records for this station are not official NWS values.
T = Trace of Precipitation, MM = Missing Value Source: NWS Daily Summary

Daily Weather History Graph

Daily Weather History Graph

Search for Another Location

Airport:

Trip Planner

Search our weather history database for the weather conditions in past years. The results will help you decide how hot, cold, wet, or windy it might be!

Date:

Astronomy

Sep. 07, 2013 Rise Set
Actual Time 6:26 AM CDT 7:01 PM CDT
Civil Twilight 6:01 AM CDT 7:25 PM CDT
Nautical Twilight 5:33 AM CDT 7:54 PM CDT
Astronomical Twilight 5:03 AM CDT 8:23 PM CDT
Moon 8:27 AM CDT (9/7) 8:14 PM CDT (9/7)
Length of Visible Light 13h 24m
Length of Day
12h 35m
Waxing Crescent, 5% of the Moon is Illuminated
Sep 7
Waxing Crescent
Sep 12
First Quarter
Sep 19
Full
Sep 26
Last Quarter
Oct 4
New

Hourly Weather History & Observations

Time (CDT) Temp. Heat Index Dew Point Humidity Pressure Visibility Wind Dir Wind Speed Gust Speed Precip Events Conditions
12:53 AM 68.0 °F - 66.0 °F 93% 30.03 in 5.0 mi Calm Calm - N/A   Clear
1:53 AM 66.9 °F - 64.9 °F 93% 30.02 in 5.0 mi Calm Calm - N/A   Clear
2:53 AM 68.0 °F - 66.0 °F 93% 30.01 in 5.0 mi Calm Calm - N/A   Clear
3:53 AM 68.0 °F - 66.0 °F 93% 30.02 in 5.0 mi Calm Calm - N/A   Clear
4:53 AM 66.9 °F - 64.9 °F 93% 30.02 in 5.0 mi Calm Calm - N/A   Clear
5:53 AM 66.9 °F - 64.9 °F 93% 30.03 in 4.0 mi Calm Calm - N/A   Clear
6:32 AM 66.2 °F - 64.4 °F 94% 30.04 in 2.0 mi Calm Calm - N/A   Clear
6:50 AM 66.2 °F - 64.4 °F 94% 30.05 in 3.0 mi Calm Calm - N/A   Clear
6:53 AM 66.9 °F - 64.9 °F 93% 30.04 in 2.5 mi Calm Calm - N/A   Clear
7:07 AM 68.0 °F - 66.2 °F 94% 30.05 in 3.0 mi Calm Calm - N/A   Clear
7:53 AM 73.9 °F - 70.0 °F 87% 30.04 in 6.0 mi Calm Calm - N/A   Clear
8:53 AM 80.1 °F 83.8 °F 72.0 °F 76% 30.06 in 7.0 mi Calm Calm - N/A   Clear
9:53 AM 82.9 °F 88.8 °F 73.0 °F 72% 30.07 in 8.0 mi Calm Calm - N/A   Mostly Cloudy
10:53 AM 88.0 °F 94.7 °F 72.0 °F 59% 30.07 in 10.0 mi East 4.6 mph - N/A   Clear
11:53 AM 90.0 °F 96.9 °F 72.0 °F 55% 30.06 in 10.0 mi Calm Calm - N/A   Partly Cloudy
12:53 PM 90.0 °F 95.4 °F 70.0 °F 52% 30.04 in 10.0 mi Variable 4.6 mph - N/A   Mostly Cloudy
1:53 PM 91.9 °F 96.9 °F 69.1 °F 47% 30.02 in 10.0 mi Variable 4.6 mph - N/A   Mostly Cloudy
2:20 PM 87.8 °F 93.8 °F 71.6 °F 58% 30.03 in 10.0 mi Variable 3.5 mph - N/A Thunderstorm Overcast
2:53 PM 80.1 °F 84.2 °F 73.0 °F 79% 30.02 in 7.0 mi SSW 9.2 mph - 0.05 in Rain , Thunderstorm Light Rain
3:17 PM 78.8 °F - 71.6 °F 78% 30.01 in 10.0 mi WSW 6.9 mph - 0.07 in   Overcast
3:53 PM 84.9 °F 89.4 °F 70.0 °F 61% 30.00 in 10.0 mi SSW 5.8 mph - 0.07 in   Clear
4:53 PM 84.9 °F 90.1 °F 71.1 °F 63% 29.99 in 10.0 mi SSW 3.5 mph - N/A   Clear
5:53 PM 84.0 °F 90.2 °F 73.0 °F 69% 29.99 in 10.0 mi NW 4.6 mph - N/A   Partly Cloudy
6:53 PM 79.0 °F - 75.0 °F 88% 29.99 in 6.0 mi Calm Calm - N/A   Partly Cloudy
7:53 PM 77.0 °F - 73.9 °F 90% 30.01 in 5.0 mi Calm Calm - N/A   Clear
8:53 PM 75.0 °F - 73.0 °F 94% 30.02 in 4.0 mi Calm Calm - N/A   Clear
9:24 PM 75.2 °F - 71.6 °F 89% 30.03 in 1.8 mi Calm Calm - N/A   Clear
9:37 PM 73.4 °F - 71.6 °F 94% 30.03 in 3.0 mi Calm Calm - N/A   Clear
9:53 PM 73.9 °F - 72.0 °F 93% 30.02 in 3.0 mi Calm Calm - N/A   Clear
10:14 PM 73.4 °F - 71.6 °F 94% 30.04 in 1.8 mi Calm Calm - N/A   Clear
10:26 PM 73.4 °F - 71.6 °F 94% 30.03 in 3.0 mi Calm Calm - N/A   Clear
10:53 PM 73.0 °F - 71.1 °F 93% 30.02 in 3.0 mi Calm Calm - N/A   Clear
11:02 PM 73.4 °F - 69.8 °F 88% 30.03 in 2.5 mi Calm Calm - N/A   Clear
11:11 PM 71.6 °F - 69.8 °F 94% 30.03 in 3.0 mi Calm Calm - N/A   Clear
11:32 PM 71.6 °F - 69.8 °F 94% 30.03 in 2.5 mi Calm Calm - N/A   Scattered Clouds
11:53 PM 72.0 °F - 70.0 °F 93% 30.02 in 2.0 mi Calm Calm - N/A   Scattered Clouds